星链-30963 (STARLINK-30963 )

导读

STARLINK-30963是美国太空探索技术公司(SpaceX)星链(Starlink)星座中的一颗卫星,于2023年11月28日发射入轨。星链项目旨在构建全球卫星互联网星座,提供全球范围的宽带互联网服务,已扩展至航空、航运、应急通信等领域,STARLINK-30963是该大规模低轨互联网星座组网过程中的一员。

Basic Information
目录编号:
58444
目录名称:
STARLINK-30963
国际标识:
2023-183H
轨道中心:
EARTH
卫星名称:
星链-30963
卫星全名:
星链-30963 (STARLINK-30963 )
卫星状态:
在轨 (已飞行933 天)
发射日期:
2023-11-28 UTC
国别 :
美国 (US)
星等 :
--
Orbit Information
数据来源 国际轨道数据 AOE轨道数据
星历时间 2026-06-17T03:01:57+0800
1天前
查看轨道信息
2026-06-17T07:00:00+0800
1天前
查看轨道信息
半长轴 6861.199km 6861.159km
偏心率 0.0001214 0.0000029
轨道倾角 43.000° 42.999°
近地点辐角 278.701° 187.917°
升交点赤经 201.697° 200.768°
平近点角 81.370° 2.316°
近地点 482.229km 483.002km
远地点 483.895km 483.042km
周期 94.267分钟 94.266分钟
每日圈数 15.275759 15.275892
Detailed Information
固有亮度:
5
最大亮度:
0.3
卫星平台:
Starlink v2.0 mini
覆盖范围:
全球
运营商:
太空探索技术公司
运营商所在国:
美国
制造商(研发单位):
太空探索技术公司
制造商所在国:
美国
使用方式:
暂无
Satellite Introduction
星链(Starlink)计划是由太空探索技术公司(SpaceX)提出的一个巨型低轨卫星互联网星座项目,计划在2019年至2024年间在太空搭建由约1.2万颗卫星组成的“星链”网络,其中1584颗将部署在地球上空550千米处的近地轨道,并从2020年开始工作。该卫星仍在工作。
2D Orbit Map
3D Orbit Map
Orbit Altitude Analysis Chart
Orbit Inclination Analysis Chart
Orbit Comprehensive Analysis Chart
View Comprehensive Chart